Year,Month,Day,Hour,Minute,Value (Times are PST for temperature in C)
2014,07,31,00,00,17.30
2014,07,31,00,01,17.30
2014,07,31,00,02,17.30
2014,07,31,00,03,17.30
2014,07,31,00,04,17.20
2014,07,31,00,05,17.20
2014,07,31,00,06,17.20
2014,07,31,00,07,17.20
2014,07,31,00,08,17.20
2014,07,31,00,09,17.10
2014,07,31,00,10,17.10
2014,07,31,00,11,17.10
2014,07,31,00,12,17.10
2014,07,31,00,13,17.10
2014,07,31,00,14,17.10
2014,07,31,00,15,17.10
2014,07,31,00,16,17.10
2014,07,31,00,17,17.00
2014,07,31,00,18,17.00
2014,07,31,00,19,17.00
2014,07,31,00,20,17.00
2014,07,31,00,21,17.00
2014,07,31,00,22,17.00
2014,07,31,00,23,17.00
2014,07,31,00,24,17.00
2014,07,31,00,25,17.00
2014,07,31,00,26,17.00
2014,07,31,00,27,17.00
2014,07,31,00,28,16.90
2014,07,31,00,29,16.90
2014,07,31,00,30,16.90
2014,07,31,00,31,16.90
2014,07,31,00,32,16.90
2014,07,31,00,33,16.90
2014,07,31,00,34,16.90
2014,07,31,00,35,16.90
2014,07,31,00,36,16.90
2014,07,31,00,37,16.90
2014,07,31,00,38,16.90
2014,07,31,00,39,16.90
2014,07,31,00,40,16.90
2014,07,31,00,41,16.90
2014,07,31,00,42,16.90
2014,07,31,00,43,16.90
2014,07,31,00,44,16.90
2014,07,31,00,45,16.80
2014,07,31,00,46,16.80
2014,07,31,00,47,16.80
2014,07,31,00,48,16.80
2014,07,31,00,49,16.80
2014,07,31,00,50,16.80
2014,07,31,00,51,16.80
2014,07,31,00,52,16.70
2014,07,31,00,53,16.70
2014,07,31,00,54,16.70
2014,07,31,00,55,16.70
2014,07,31,00,56,16.70
2014,07,31,00,57,16.70
2014,07,31,00,58,16.70
2014,07,31,00,59,16.70
2014,07,31,01,00,16.60
2014,07,31,01,01,16.60
2014,07,31,01,02,16.60
2014,07,31,01,03,16.50
2014,07,31,01,04,16.40
2014,07,31,01,05,16.40
2014,07,31,01,06,16.40
2014,07,31,01,07,16.40
2014,07,31,01,08,16.40
2014,07,31,01,09,16.30
2014,07,31,01,10,16.30
2014,07,31,01,11,16.30
2014,07,31,01,12,16.30
2014,07,31,01,13,16.20
2014,07,31,01,14,16.20
2014,07,31,01,15,16.20
2014,07,31,01,16,16.20
2014,07,31,01,17,16.20
2014,07,31,01,18,16.10
2014,07,31,01,19,16.10
2014,07,31,01,20,16.10
2014,07,31,01,21,16.10
2014,07,31,01,22,16.10
2014,07,31,01,23,16.10
2014,07,31,01,24,16.10
2014,07,31,01,25,16.10
2014,07,31,01,26,16.10
2014,07,31,01,27,16.10
2014,07,31,01,28,16.10
2014,07,31,01,29,16.10
2014,07,31,01,30,16.00
2014,07,31,01,31,15.90
2014,07,31,01,32,15.90
2014,07,31,01,33,15.90
2014,07,31,01,34,15.90
2014,07,31,01,35,15.90
2014,07,31,01,36,15.90
2014,07,31,01,37,15.90
2014,07,31,01,38,15.90
2014,07,31,01,39,15.90
2014,07,31,01,40,15.90
2014,07,31,01,41,15.90
2014,07,31,01,42,15.90
2014,07,31,01,43,15.90
2014,07,31,01,44,15.90
2014,07,31,01,45,15.90
2014,07,31,01,46,15.90
2014,07,31,01,47,15.90
2014,07,31,01,48,15.90
2014,07,31,01,49,15.90
2014,07,31,01,50,15.80
2014,07,31,01,51,15.80
2014,07,31,01,52,15.80
2014,07,31,01,53,15.80
2014,07,31,01,54,15.80
2014,07,31,01,55,15.80
2014,07,31,01,56,15.80
2014,07,31,01,57,15.80
2014,07,31,01,58,15.80
2014,07,31,01,59,15.80
2014,07,31,02,00,15.80
2014,07,31,02,01,15.80
2014,07,31,02,02,15.80
2014,07,31,02,03,15.80
2014,07,31,02,04,15.70
2014,07,31,02,05,15.70
2014,07,31,02,06,15.70
2014,07,31,02,07,15.70
2014,07,31,02,08,15.70
2014,07,31,02,09,15.70
2014,07,31,02,10,15.60
2014,07,31,02,11,15.60
2014,07,31,02,12,15.60
2014,07,31,02,13,15.60
2014,07,31,02,14,15.60
2014,07,31,02,15,15.60
2014,07,31,02,16,15.60
2014,07,31,02,17,15.60
2014,07,31,02,18,15.50
2014,07,31,02,19,15.50
2014,07,31,02,20,15.50
2014,07,31,02,21,15.50
2014,07,31,02,22,15.50
2014,07,31,02,23,15.50
2014,07,31,02,24,15.50
2014,07,31,02,25,15.50
2014,07,31,02,26,15.50
2014,07,31,02,27,15.50
2014,07,31,02,28,15.50
2014,07,31,02,29,15.50
2014,07,31,02,30,15.50
2014,07,31,02,31,15.50
2014,07,31,02,32,15.50
2014,07,31,02,33,15.50
2014,07,31,02,34,15.50
2014,07,31,02,35,15.50
2014,07,31,02,36,15.50
2014,07,31,02,37,15.50
2014,07,31,02,38,15.50
2014,07,31,02,39,15.50
2014,07,31,02,40,15.50
2014,07,31,02,41,15.50
2014,07,31,02,42,15.50
2014,07,31,02,43,15.50
2014,07,31,02,44,15.50
2014,07,31,02,45,15.50
2014,07,31,02,46,15.50
2014,07,31,02,47,15.50
2014,07,31,02,48,15.50
2014,07,31,02,49,15.50
2014,07,31,02,50,15.50
2014,07,31,02,51,15.40
2014,07,31,02,52,15.40
2014,07,31,02,53,15.40
2014,07,31,02,54,15.40
2014,07,31,02,55,15.40
2014,07,31,02,56,15.40
2014,07,31,02,57,15.40
2014,07,31,02,58,15.40
2014,07,31,02,59,15.40
2014,07,31,03,00,15.40
2014,07,31,03,01,15.40
2014,07,31,03,02,15.40
2014,07,31,03,03,15.30
2014,07,31,03,04,15.30
2014,07,31,03,05,15.30
2014,07,31,03,06,15.30
2014,07,31,03,07,15.30
2014,07,31,03,08,15.30
2014,07,31,03,09,15.30
2014,07,31,03,10,15.30
2014,07,31,03,11,15.30
2014,07,31,03,12,15.30
2014,07,31,03,13,15.30
2014,07,31,03,14,15.30
2014,07,31,03,15,15.30
2014,07,31,03,16,15.30
2014,07,31,03,17,15.20
2014,07,31,03,18,15.20
2014,07,31,03,19,15.20
2014,07,31,03,20,15.20
2014,07,31,03,21,15.20
2014,07,31,03,22,15.20
2014,07,31,03,23,15.10
2014,07,31,03,24,15.10
2014,07,31,03,25,15.10
2014,07,31,03,26,15.10
2014,07,31,03,27,15.10
2014,07,31,03,28,15.10
2014,07,31,03,29,15.00
2014,07,31,03,30,15.00
2014,07,31,03,31,15.00
2014,07,31,03,32,15.00
2014,07,31,03,33,15.00
2014,07,31,03,34,15.00
2014,07,31,03,35,15.00
2014,07,31,03,36,15.00
2014,07,31,03,37,15.10
2014,07,31,03,38,15.10
2014,07,31,03,39,15.10
2014,07,31,03,40,15.10
2014,07,31,03,41,15.10
2014,07,31,03,42,15.10
2014,07,31,03,43,15.10
2014,07,31,03,44,15.10
2014,07,31,03,45,15.10
2014,07,31,03,46,15.10
2014,07,31,03,47,15.10
2014,07,31,03,48,15.10
2014,07,31,03,49,15.10
2014,07,31,03,50,15.10
2014,07,31,03,51,15.10
2014,07,31,03,52,15.00
2014,07,31,03,53,15.00
2014,07,31,03,54,15.00
2014,07,31,03,55,15.00
2014,07,31,03,56,15.00
2014,07,31,03,57,15.00
2014,07,31,03,58,15.00
2014,07,31,03,59,15.00
2014,07,31,04,00,14.90
2014,07,31,04,01,15.00
2014,07,31,04,02,15.00
2014,07,31,04,03,15.00
2014,07,31,04,04,15.00
2014,07,31,04,05,15.00
2014,07,31,04,06,15.00
2014,07,31,04,07,15.00
2014,07,31,04,08,15.00
2014,07,31,04,09,15.00
2014,07,31,04,10,15.00
2014,07,31,04,11,15.00
2014,07,31,04,12,14.90
2014,07,31,04,13,14.90
2014,07,31,04,14,14.90
2014,07,31,04,15,14.90
2014,07,31,04,16,14.90
2014,07,31,04,17,14.90
2014,07,31,04,18,14.90
2014,07,31,04,19,14.90
2014,07,31,04,20,14.90
2014,07,31,04,21,14.90
2014,07,31,04,22,14.90
2014,07,31,04,23,14.90
2014,07,31,04,24,14.90
2014,07,31,04,25,14.90
2014,07,31,04,26,14.90
2014,07,31,04,27,14.90
2014,07,31,04,28,14.90
2014,07,31,04,29,14.80
2014,07,31,04,30,14.80
2014,07,31,04,31,14.80
2014,07,31,04,32,14.80
2014,07,31,04,33,14.80
2014,07,31,04,34,14.80
2014,07,31,04,35,14.80
2014,07,31,04,36,14.80
2014,07,31,04,37,14.80
2014,07,31,04,38,14.80
2014,07,31,04,39,14.80
2014,07,31,04,40,14.80
2014,07,31,04,41,14.80
2014,07,31,04,42,14.80
2014,07,31,04,43,14.70
2014,07,31,04,44,14.70
2014,07,31,04,45,14.70
2014,07,31,04,46,14.70
2014,07,31,04,47,14.60
2014,07,31,04,48,14.60
2014,07,31,04,49,14.60
2014,07,31,04,50,14.60
2014,07,31,04,51,14.50
2014,07,31,04,52,14.50
2014,07,31,04,53,14.50
2014,07,31,04,54,14.50
2014,07,31,04,55,14.50
2014,07,31,04,56,14.40
2014,07,31,04,57,14.40
2014,07,31,04,58,14.40
2014,07,31,04,59,14.40
2014,07,31,05,00,14.40
2014,07,31,05,01,14.40
2014,07,31,05,02,14.40
2014,07,31,05,03,14.40
2014,07,31,05,04,14.40
2014,07,31,05,05,14.40
2014,07,31,05,06,14.40
2014,07,31,05,07,14.40
2014,07,31,05,08,14.40
2014,07,31,05,09,14.30
2014,07,31,05,10,14.30
2014,07,31,05,11,14.30
2014,07,31,05,12,14.30
2014,07,31,05,13,14.30
2014,07,31,05,14,14.30
2014,07,31,05,15,14.30
2014,07,31,05,16,14.20
2014,07,31,05,17,14.20
2014,07,31,05,18,14.20
2014,07,31,05,19,14.20
2014,07,31,05,20,14.20
2014,07,31,05,21,14.20
2014,07,31,05,22,14.20
2014,07,31,05,23,14.20
2014,07,31,05,24,14.20
2014,07,31,05,25,14.20
2014,07,31,05,26,14.20
2014,07,31,05,27,14.20
2014,07,31,05,28,14.20
2014,07,31,05,29,14.20
2014,07,31,05,30,14.20
2014,07,31,05,31,14.20
2014,07,31,05,32,14.20
2014,07,31,05,33,14.20
2014,07,31,05,34,14.20
2014,07,31,05,35,14.20
2014,07,31,05,36,14.20
2014,07,31,05,37,14.20
2014,07,31,05,38,14.20
2014,07,31,05,39,14.20
2014,07,31,05,40,14.20
2014,07,31,05,41,14.20
2014,07,31,05,42,14.20
2014,07,31,05,43,14.20
2014,07,31,05,44,14.20
2014,07,31,05,45,14.20
2014,07,31,05,46,14.20
2014,07,31,05,47,14.20
2014,07,31,05,48,14.20
2014,07,31,05,49,14.10
2014,07,31,05,50,14.10
2014,07,31,05,51,14.00
2014,07,31,05,52,14.00
2014,07,31,05,53,14.00
2014,07,31,05,54,14.00
2014,07,31,05,55,13.90
2014,07,31,05,56,13.90
2014,07,31,05,57,13.90
2014,07,31,05,58,13.90
2014,07,31,05,59,13.90
2014,07,31,06,00,13.90
2014,07,31,06,01,13.90
2014,07,31,06,02,13.90
2014,07,31,06,03,13.90
2014,07,31,06,04,13.80
2014,07,31,06,05,13.80
2014,07,31,06,06,13.80
2014,07,31,06,07,13.80
2014,07,31,06,08,13.80
2014,07,31,06,09,13.80
2014,07,31,06,10,13.80
2014,07,31,06,11,13.80
2014,07,31,06,12,13.80
2014,07,31,06,13,13.80
2014,07,31,06,14,13.80
2014,07,31,06,15,13.80
2014,07,31,06,16,13.80
2014,07,31,06,17,13.80
2014,07,31,06,18,13.80
2014,07,31,06,19,13.80
2014,07,31,06,20,13.80
2014,07,31,06,21,13.80
2014,07,31,06,22,13.80
2014,07,31,06,23,13.90
2014,07,31,06,24,13.90
2014,07,31,06,25,13.90
2014,07,31,06,26,13.90
2014,07,31,06,27,13.90
2014,07,31,06,28,14.00
2014,07,31,06,29,14.00
2014,07,31,06,30,14.00
2014,07,31,06,31,14.00
2014,07,31,06,32,14.00
2014,07,31,06,33,14.10
2014,07,31,06,34,14.10
2014,07,31,06,35,14.20
2014,07,31,06,36,14.20
2014,07,31,06,37,14.20
2014,07,31,06,38,14.30
2014,07,31,06,39,14.40
2014,07,31,06,40,14.50
2014,07,31,06,41,14.60
2014,07,31,06,42,14.70
2014,07,31,06,43,14.80
2014,07,31,06,44,14.80
2014,07,31,06,45,14.90
2014,07,31,06,46,14.90
2014,07,31,06,47,15.00
2014,07,31,06,48,15.00
2014,07,31,06,49,15.00
2014,07,31,06,50,15.10
2014,07,31,06,51,15.10
2014,07,31,06,52,15.20
2014,07,31,06,53,15.20
2014,07,31,06,54,15.30
2014,07,31,06,55,15.30
2014,07,31,06,56,15.30
2014,07,31,06,57,15.40
2014,07,31,06,58,15.40
2014,07,31,06,59,15.50
2014,07,31,07,00,15.50
2014,07,31,07,01,15.60
2014,07,31,07,02,15.60
2014,07,31,07,03,15.70
2014,07,31,07,04,15.70
2014,07,31,07,05,15.80
2014,07,31,07,06,15.80
2014,07,31,07,07,15.80
2014,07,31,07,08,15.90
2014,07,31,07,09,15.90
2014,07,31,07,10,16.00
2014,07,31,07,11,16.10
2014,07,31,07,12,16.10
2014,07,31,07,13,16.10
2014,07,31,07,14,16.20
2014,07,31,07,15,16.20
2014,07,31,07,16,16.30
2014,07,31,07,17,16.30
2014,07,31,07,18,16.40
2014,07,31,07,19,16.40
2014,07,31,07,20,16.50
2014,07,31,07,21,16.60
2014,07,31,07,22,16.60
2014,07,31,07,23,16.70
2014,07,31,07,24,16.70
2014,07,31,07,25,16.80
2014,07,31,07,26,16.90
2014,07,31,07,27,16.90
2014,07,31,07,28,17.00
2014,07,31,07,29,17.00
2014,07,31,07,30,17.10
2014,07,31,07,31,17.20
2014,07,31,07,32,17.30
2014,07,31,07,33,17.40
2014,07,31,07,34,17.50
2014,07,31,07,35,17.50
2014,07,31,07,36,17.60
2014,07,31,07,37,17.70
2014,07,31,07,38,17.70
2014,07,31,07,39,17.80
2014,07,31,07,40,17.80
2014,07,31,07,41,17.90
2014,07,31,07,42,17.90
2014,07,31,07,43,17.90
2014,07,31,07,44,18.00
2014,07,31,07,45,18.10
2014,07,31,07,46,18.20
2014,07,31,07,47,18.20
2014,07,31,07,48,18.30
2014,07,31,07,49,18.30
2014,07,31,07,50,18.40
2014,07,31,07,51,18.40
2014,07,31,07,52,18.50
2014,07,31,07,53,18.50
2014,07,31,07,54,18.60
2014,07,31,07,55,18.60
2014,07,31,07,56,18.70
2014,07,31,07,57,18.80
2014,07,31,07,58,18.80
2014,07,31,07,59,18.90
2014,07,31,08,00,18.90
2014,07,31,08,01,18.90
2014,07,31,08,02,19.00
2014,07,31,08,03,19.10
2014,07,31,08,04,19.10
2014,07,31,08,05,19.20
2014,07,31,08,06,19.20
2014,07,31,08,07,19.30
2014,07,31,08,08,19.30
2014,07,31,08,09,19.30
2014,07,31,08,10,19.30
2014,07,31,08,11,19.30
2014,07,31,08,12,19.30
2014,07,31,08,13,19.30
2014,07,31,08,14,19.30
2014,07,31,08,15,19.40
2014,07,31,08,16,19.40
2014,07,31,08,17,19.50
2014,07,31,08,18,19.50
2014,07,31,08,19,19.60
2014,07,31,08,20,19.70
2014,07,31,08,21,19.70
2014,07,31,08,22,19.80
2014,07,31,08,23,19.80
2014,07,31,08,24,19.90
2014,07,31,08,25,19.90
2014,07,31,08,26,20.00
2014,07,31,08,27,20.10
2014,07,31,08,28,20.20
2014,07,31,08,29,20.20
2014,07,31,08,30,20.20
2014,07,31,08,31,20.30
2014,07,31,08,32,20.40
2014,07,31,08,33,20.50
2014,07,31,08,34,20.50
2014,07,31,08,35,20.60
2014,07,31,08,36,20.70
2014,07,31,08,37,20.70
2014,07,31,08,38,20.90
2014,07,31,08,39,21.00
2014,07,31,08,40,21.00
2014,07,31,08,41,21.10
2014,07,31,08,42,21.30
2014,07,31,08,43,21.40
2014,07,31,08,44,21.50
2014,07,31,08,45,21.60
2014,07,31,08,46,21.60
2014,07,31,08,47,21.70
2014,07,31,08,48,21.70
2014,07,31,08,49,21.60
2014,07,31,08,50,21.60
2014,07,31,08,51,21.60
2014,07,31,08,52,21.60
2014,07,31,08,53,21.50
2014,07,31,08,54,21.40
2014,07,31,08,55,21.20
2014,07,31,08,56,21.00
2014,07,31,08,57,20.80
2014,07,31,08,58,20.80
2014,07,31,08,59,20.70
2014,07,31,09,00,20.70
2014,07,31,09,01,20.70
2014,07,31,09,02,20.60
2014,07,31,09,03,20.50
2014,07,31,09,04,20.20
2014,07,31,09,05,20.00
2014,07,31,09,06,19.90
2014,07,31,09,07,19.70
2014,07,31,09,08,19.60
2014,07,31,09,09,19.60
2014,07,31,09,10,19.50
2014,07,31,09,11,19.50
2014,07,31,09,12,19.30
2014,07,31,09,13,19.10
2014,07,31,09,14,18.90
2014,07,31,09,15,18.80
2014,07,31,09,16,18.70
2014,07,31,09,17,18.60
2014,07,31,09,18,18.60
2014,07,31,09,19,18.50
2014,07,31,09,20,18.50
2014,07,31,09,21,18.50
2014,07,31,09,22,18.60
2014,07,31,09,23,18.70
2014,07,31,09,24,18.80
2014,07,31,09,25,18.90
2014,07,31,09,26,19.00
2014,07,31,09,27,19.10
2014,07,31,09,28,19.30
2014,07,31,09,29,19.50
2014,07,31,09,30,19.70
2014,07,31,09,31,20.00
2014,07,31,09,32,20.20
2014,07,31,09,33,20.30
2014,07,31,09,34,20.50
2014,07,31,09,35,20.60
2014,07,31,09,36,20.70
2014,07,31,09,37,20.90
2014,07,31,09,38,21.00
2014,07,31,09,39,21.10
2014,07,31,09,40,21.30
2014,07,31,09,41,21.40
2014,07,31,09,42,21.40
2014,07,31,09,43,21.30
2014,07,31,09,44,21.30
2014,07,31,09,45,21.30
2014,07,31,09,46,21.40
2014,07,31,09,47,21.60
2014,07,31,09,48,21.60
2014,07,31,09,49,21.70
2014,07,31,09,50,21.80
2014,07,31,09,51,21.80
2014,07,31,09,52,21.80
2014,07,31,09,53,21.80
2014,07,31,09,54,21.80
2014,07,31,09,55,21.80
2014,07,31,09,56,21.80
2014,07,31,09,57,21.80
2014,07,31,09,58,21.80
2014,07,31,09,59,21.70
2014,07,31,10,00,21.70
2014,07,31,10,01,21.70
2014,07,31,10,02,21.80
2014,07,31,10,03,21.80
2014,07,31,10,04,21.90
2014,07,31,10,05,21.90
2014,07,31,10,06,21.90
2014,07,31,10,07,22.00
2014,07,31,10,08,22.00
2014,07,31,10,09,22.20
2014,07,31,10,10,22.30
2014,07,31,10,11,22.40
2014,07,31,10,12,22.40
2014,07,31,10,13,22.40
2014,07,31,10,14,22.40
2014,07,31,10,15,22.40
2014,07,31,10,16,22.30
2014,07,31,10,17,22.30
2014,07,31,10,18,22.40
2014,07,31,10,19,22.40
2014,07,31,10,20,22.30
2014,07,31,10,21,22.30
2014,07,31,10,22,22.30
2014,07,31,10,23,22.30
2014,07,31,10,24,22.30
2014,07,31,10,25,22.40
2014,07,31,10,26,22.40
2014,07,31,10,27,22.50
2014,07,31,10,28,22.60
2014,07,31,10,29,22.60
2014,07,31,10,30,22.70
2014,07,31,10,31,22.70
2014,07,31,10,32,22.60
2014,07,31,10,33,22.60
2014,07,31,10,34,22.60
2014,07,31,10,35,22.60
2014,07,31,10,36,22.70
2014,07,31,10,37,22.80
2014,07,31,10,38,22.80
2014,07,31,10,39,22.90
2014,07,31,10,40,22.90
2014,07,31,10,41,22.90
2014,07,31,10,42,22.80
2014,07,31,10,43,22.80
2014,07,31,10,44,22.80
2014,07,31,10,45,22.80
2014,07,31,10,46,22.80
2014,07,31,10,47,22.70
2014,07,31,10,48,22.80
2014,07,31,10,49,22.80
2014,07,31,10,50,22.90
2014,07,31,10,51,22.90
2014,07,31,10,52,22.90
2014,07,31,10,53,22.90
2014,07,31,10,54,22.90
2014,07,31,10,55,22.90
2014,07,31,10,56,23.00
2014,07,31,10,57,23.10
2014,07,31,10,58,23.20
2014,07,31,10,59,23.30
2014,07,31,11,00,23.50
2014,07,31,11,01,23.60
2014,07,31,11,02,23.70
2014,07,31,11,03,23.70
2014,07,31,11,04,23.80
2014,07,31,11,05,23.80
2014,07,31,11,06,23.90
2014,07,31,11,07,23.90
2014,07,31,11,08,23.90
2014,07,31,11,09,23.90
2014,07,31,11,10,23.90
2014,07,31,11,11,23.80
2014,07,31,11,12,23.90
2014,07,31,11,13,23.90
2014,07,31,11,14,23.90
2014,07,31,11,15,23.80
2014,07,31,11,16,23.80
2014,07,31,11,17,23.80
2014,07,31,11,18,23.80
2014,07,31,11,19,23.90
2014,07,31,11,20,23.90
2014,07,31,11,21,23.90
2014,07,31,11,22,23.90
2014,07,31,11,23,23.90
2014,07,31,11,24,23.90
2014,07,31,11,25,23.80
2014,07,31,11,26,23.80
2014,07,31,11,27,23.70
2014,07,31,11,28,23.70
2014,07,31,11,29,23.70
2014,07,31,11,30,23.70
2014,07,31,11,31,23.70
2014,07,31,11,32,23.70
2014,07,31,11,33,23.70
2014,07,31,11,34,23.70
2014,07,31,11,35,23.70
2014,07,31,11,36,23.70
2014,07,31,11,37,23.80
2014,07,31,11,38,23.90
2014,07,31,11,39,23.90
2014,07,31,11,40,23.90
2014,07,31,11,41,23.80
2014,07,31,11,42,23.70
2014,07,31,11,43,23.70
2014,07,31,11,44,23.70
2014,07,31,11,45,23.50
2014,07,31,11,46,23.20
2014,07,31,11,47,22.90
2014,07,31,11,48,22.80
2014,07,31,11,49,22.80
2014,07,31,11,50,22.70
2014,07,31,11,51,22.70
2014,07,31,11,52,22.70
2014,07,31,11,53,22.80
2014,07,31,11,54,22.90
2014,07,31,11,55,22.90
2014,07,31,11,56,22.90
2014,07,31,11,57,22.90
2014,07,31,11,58,22.90
2014,07,31,11,59,22.90
2014,07,31,12,00,22.90
2014,07,31,12,01,22.90
2014,07,31,12,02,23.00
2014,07,31,12,03,23.10
2014,07,31,12,04,23.10
2014,07,31,12,05,23.30
2014,07,31,12,06,23.30
2014,07,31,12,07,23.30
2014,07,31,12,08,23.30
2014,07,31,12,09,23.30
2014,07,31,12,10,23.30
2014,07,31,12,11,23.30
2014,07,31,12,12,23.30
2014,07,31,12,13,23.30
2014,07,31,12,14,23.30
2014,07,31,12,15,23.30
2014,07,31,12,16,23.40
2014,07,31,12,17,23.40
2014,07,31,12,18,23.30
2014,07,31,12,19,23.20
2014,07,31,12,20,23.00
2014,07,31,12,21,22.90
2014,07,31,12,22,22.90
2014,07,31,12,23,22.90
2014,07,31,12,24,22.90
2014,07,31,12,25,22.80
2014,07,31,12,26,22.90
2014,07,31,12,27,22.90
2014,07,31,12,28,22.90
2014,07,31,12,29,22.80
2014,07,31,12,30,22.70
2014,07,31,12,31,22.60
2014,07,31,12,32,22.60
2014,07,31,12,33,22.60
2014,07,31,12,34,22.60
2014,07,31,12,35,22.70
2014,07,31,12,36,22.80
2014,07,31,12,37,22.70
2014,07,31,12,38,22.70
2014,07,31,12,39,22.70
2014,07,31,12,40,22.90
2014,07,31,12,41,23.00
2014,07,31,12,42,23.20
2014,07,31,12,43,23.30
2014,07,31,12,44,23.30
2014,07,31,12,45,23.40
2014,07,31,12,46,23.40
2014,07,31,12,47,23.40
2014,07,31,12,48,23.40
2014,07,31,12,49,23.40
2014,07,31,12,50,23.50
2014,07,31,12,51,23.70
2014,07,31,12,52,23.70
2014,07,31,12,53,23.70
2014,07,31,12,54,23.70
2014,07,31,12,55,23.80
2014,07,31,12,56,23.80
2014,07,31,12,57,23.80
2014,07,31,12,58,23.70
2014,07,31,12,59,23.80
2014,07,31,13,00,23.90
2014,07,31,13,01,23.90
2014,07,31,13,02,24.00
2014,07,31,13,03,24.10
2014,07,31,13,04,24.20
2014,07,31,13,05,24.30
2014,07,31,13,06,24.20
2014,07,31,13,07,24.30
2014,07,31,13,08,24.30
2014,07,31,13,09,24.40
2014,07,31,13,10,24.50
2014,07,31,13,11,24.60
2014,07,31,13,12,24.70
2014,07,31,13,13,24.70
2014,07,31,13,14,24.70
2014,07,31,13,15,24.60
2014,07,31,13,16,24.70
2014,07,31,13,17,24.80
2014,07,31,13,18,24.80
2014,07,31,13,19,24.90
2014,07,31,13,20,25.00
2014,07,31,13,21,25.20
2014,07,31,13,22,25.50
2014,07,31,13,23,25.70
2014,07,31,13,24,25.90
2014,07,31,13,25,26.00
2014,07,31,13,26,26.10
2014,07,31,13,27,26.10
2014,07,31,13,28,26.10
2014,07,31,13,29,26.10
2014,07,31,13,30,26.20
2014,07,31,13,31,26.30
2014,07,31,13,32,26.30
2014,07,31,13,33,26.40
2014,07,31,13,34,26.40
2014,07,31,13,35,26.40
2014,07,31,13,36,26.30
2014,07,31,13,37,26.10
2014,07,31,13,38,26.00
2014,07,31,13,39,26.00
2014,07,31,13,40,26.10
2014,07,31,13,41,26.10
2014,07,31,13,42,26.10
2014,07,31,13,43,26.00
2014,07,31,13,44,25.80
2014,07,31,13,45,25.60
2014,07,31,13,46,25.30
2014,07,31,13,47,25.00
2014,07,31,13,48,24.90
2014,07,31,13,49,24.80
2014,07,31,13,50,24.80
2014,07,31,13,51,24.70
2014,07,31,13,52,24.70
2014,07,31,13,53,24.70
2014,07,31,13,54,24.80
2014,07,31,13,55,24.80
2014,07,31,13,56,24.70
2014,07,31,13,57,24.60
2014,07,31,13,58,24.50
2014,07,31,13,59,24.40
2014,07,31,14,00,24.30
2014,07,31,14,01,24.30
2014,07,31,14,02,24.40
2014,07,31,14,03,24.40
2014,07,31,14,04,24.30
2014,07,31,14,05,24.30
2014,07,31,14,06,24.40
2014,07,31,14,07,24.40
2014,07,31,14,08,24.50
2014,07,31,14,09,24.70
2014,07,31,14,10,24.70
2014,07,31,14,11,24.80
2014,07,31,14,12,24.90
2014,07,31,14,13,24.90
2014,07,31,14,14,25.00
2014,07,31,14,15,25.10
2014,07,31,14,16,24.90
2014,07,31,14,17,24.70
2014,07,31,14,18,24.60
2014,07,31,14,19,24.50
2014,07,31,14,20,24.60
2014,07,31,14,21,24.70
2014,07,31,14,22,24.80
2014,07,31,14,23,24.90
2014,07,31,14,24,25.00
2014,07,31,14,25,25.20
2014,07,31,14,26,25.40
2014,07,31,14,27,25.50
2014,07,31,14,28,25.60
2014,07,31,14,29,25.70
2014,07,31,14,30,25.90
2014,07,31,14,31,26.00
2014,07,31,14,32,26.10
2014,07,31,14,33,26.10
2014,07,31,14,34,25.80
2014,07,31,14,35,25.50
2014,07,31,14,36,25.40
2014,07,31,14,37,25.40
2014,07,31,14,38,25.40
2014,07,31,14,39,25.30
2014,07,31,14,40,25.30
2014,07,31,14,41,25.20
2014,07,31,14,42,25.00
2014,07,31,14,43,24.90
2014,07,31,14,44,25.00
2014,07,31,14,45,25.10
2014,07,31,14,46,25.30
2014,07,31,14,47,25.30
2014,07,31,14,48,25.40
2014,07,31,14,49,25.30
2014,07,31,14,50,25.30
2014,07,31,14,51,25.20
2014,07,31,14,52,25.10
2014,07,31,14,53,25.10
2014,07,31,14,54,25.10
2014,07,31,14,55,25.00
2014,07,31,14,56,25.00
2014,07,31,14,57,25.00
2014,07,31,14,58,25.10
2014,07,31,14,59,25.20
2014,07,31,15,00,25.20
2014,07,31,15,01,25.20
2014,07,31,15,02,25.10
2014,07,31,15,03,25.00
2014,07,31,15,04,25.00
2014,07,31,15,05,25.00
2014,07,31,15,06,25.00
2014,07,31,15,07,25.00
2014,07,31,15,08,25.10
2014,07,31,15,09,25.20
2014,07,31,15,10,25.40
2014,07,31,15,11,25.50
2014,07,31,15,12,25.60
2014,07,31,15,13,25.70
2014,07,31,15,14,25.80
2014,07,31,15,15,25.80
2014,07,31,15,16,25.70
2014,07,31,15,17,25.30
2014,07,31,15,18,25.10
2014,07,31,15,19,25.10
2014,07,31,15,20,25.10
2014,07,31,15,21,24.90
2014,07,31,15,22,24.90
2014,07,31,15,23,25.00
2014,07,31,15,24,25.00
2014,07,31,15,25,25.10
2014,07,31,15,26,25.20
2014,07,31,15,27,25.10
2014,07,31,15,28,25.00
2014,07,31,15,29,25.00
2014,07,31,15,30,25.00
2014,07,31,15,31,25.10
2014,07,31,15,32,25.20
2014,07,31,15,33,25.20
2014,07,31,15,34,25.20
2014,07,31,15,35,25.30
2014,07,31,15,36,25.40
2014,07,31,15,37,25.60
2014,07,31,15,38,25.80
2014,07,31,15,39,25.80
2014,07,31,15,40,25.80
2014,07,31,15,41,25.70
2014,07,31,15,42,25.70
2014,07,31,15,43,25.80
2014,07,31,15,44,25.90
2014,07,31,15,45,26.10
2014,07,31,15,46,26.30
2014,07,31,15,47,26.50
2014,07,31,15,48,26.60
2014,07,31,15,49,26.90
2014,07,31,15,50,27.10
2014,07,31,15,51,27.30
2014,07,31,15,52,27.40
2014,07,31,15,53,27.60
2014,07,31,15,54,27.80
2014,07,31,15,55,27.90
2014,07,31,15,56,28.10
2014,07,31,15,57,28.30
2014,07,31,15,58,28.40
2014,07,31,15,59,28.30
2014,07,31,16,00,28.00
2014,07,31,16,01,27.60
2014,07,31,16,02,27.40
2014,07,31,16,03,27.30
2014,07,31,16,04,27.00
2014,07,31,16,05,26.80
2014,07,31,16,06,26.70
2014,07,31,16,07,26.60
2014,07,31,16,08,26.60
2014,07,31,16,09,26.60
2014,07,31,16,10,26.60
2014,07,31,16,11,26.60
2014,07,31,16,12,26.50
2014,07,31,16,13,26.40
2014,07,31,16,14,26.40
2014,07,31,16,15,26.40
2014,07,31,16,16,26.30
2014,07,31,16,17,26.30
2014,07,31,16,18,26.30
2014,07,31,16,19,26.30
2014,07,31,16,20,26.30
2014,07,31,16,21,26.20
2014,07,31,16,22,26.10
2014,07,31,16,23,26.20
2014,07,31,16,24,26.20
2014,07,31,16,25,26.30
2014,07,31,16,26,26.40
2014,07,31,16,27,26.40
2014,07,31,16,28,26.40
2014,07,31,16,29,26.40
2014,07,31,16,30,26.60
2014,07,31,16,31,26.50
2014,07,31,16,32,26.40
2014,07,31,16,33,26.40
2014,07,31,16,34,26.50
2014,07,31,16,35,26.60
2014,07,31,16,36,26.70
2014,07,31,16,37,26.90
2014,07,31,16,38,27.00
2014,07,31,16,39,27.20
2014,07,31,16,40,27.10
2014,07,31,16,41,27.10
2014,07,31,16,42,27.10
2014,07,31,16,43,27.20
2014,07,31,16,44,27.30
2014,07,31,16,45,27.30
2014,07,31,16,46,27.50
2014,07,31,16,47,27.70
2014,07,31,16,48,27.70
2014,07,31,16,49,27.60
2014,07,31,16,50,27.40
2014,07,31,16,51,27.30
2014,07,31,16,52,27.30
2014,07,31,16,53,27.40
2014,07,31,16,54,27.50
2014,07,31,16,55,27.60
2014,07,31,16,56,27.70
2014,07,31,16,57,27.70
2014,07,31,16,58,27.80
2014,07,31,16,59,27.80
2014,07,31,17,00,27.80
2014,07,31,17,01,27.80
2014,07,31,17,02,27.90
2014,07,31,17,03,27.90
2014,07,31,17,04,28.10
2014,07,31,17,05,28.30
2014,07,31,17,06,28.40
2014,07,31,17,07,28.40
2014,07,31,17,08,28.40
2014,07,31,17,09,28.30
2014,07,31,17,10,28.10
2014,07,31,17,11,28.10
2014,07,31,17,12,28.10
2014,07,31,17,13,28.10
2014,07,31,17,14,28.00
2014,07,31,17,15,27.80
2014,07,31,17,16,27.60
2014,07,31,17,17,27.60
2014,07,31,17,18,27.60
2014,07,31,17,19,27.60